Time,TemperatureF,DewpointF,PressureIn,WindDirection,WindDirectionDegrees,WindSpeedMPH,WindSpeedGustMPH,Humidity,HourlyPrecipIn,Conditions,Clouds,dailyrainin,SolarRadiationWatts/m^2,SoftwareType,DateUTC
2013-07-10 00:01:00,74.0,44.0,-100.00,North,357,0.0,0.0,34,0.00,,,0.00,0.000000,,2013-07-10 07:01:00,
2013-07-10 00:33:00,74.0,45.0,-100.00,North,358,0.0,0.0,36,0.00,,,0.00,0.000000,,2013-07-10 07:33:00,
2013-07-10 00:43:00,74.0,45.0,-100.00,North,358,0.0,0.0,36,0.00,,,0.00,0.000000,,2013-07-10 07:43:00,
2013-07-10 00:53:00,74.0,45.0,-100.00,North,358,0.0,0.0,36,0.00,,,0.00,0.000000,,2013-07-10 07:53:00,
2013-07-10 01:01:00,74.0,45.0,-100.00,North,358,0.0,0.0,36,0.00,,,0.00,0.000000,,2013-07-10 08:01:00,
2013-07-10 01:23:00,73.0,47.0,-100.00,NNW,346,0.0,0.0,39,0.00,,,0.00,0.000000,,2013-07-10 08:23:00,
2013-07-10 01:33:00,73.0,47.0,-100.00,NNW,346,0.0,0.0,39,0.00,,,0.00,0.000000,,2013-07-10 08:33:00,
2013-07-10 01:42:00,73.0,47.0,-100.00,NNW,346,0.0,0.0,39,0.00,,,0.00,0.000000,,2013-07-10 08:42:00,
2013-07-10 01:53:00,73.0,47.0,-100.00,NNW,346,0.0,0.0,39,0.00,,,0.00,0.000000,,2013-07-10 08:53:00,
2013-07-10 02:02:00,73.0,47.0,-100.00,NNW,346,0.0,0.0,39,0.00,,,0.00,0.000000,,2013-07-10 09:02:00,
2013-07-10 02:33:00,74.0,48.0,-100.00,North,351,0.0,0.0,40,0.00,,,0.00,0.000000,,2013-07-10 09:33:00,
2013-07-10 02:43:00,74.0,48.0,-100.00,North,351,0.0,0.0,40,0.00,,,0.00,0.000000,,2013-07-10 09:43:00,
2013-07-10 02:53:00,74.0,48.0,-100.00,North,351,0.0,0.0,40,0.00,,,0.00,0.000000,,2013-07-10 09:53:00,
2013-07-10 03:01:00,74.0,48.0,-100.00,North,351,0.0,0.0,40,0.00,,,0.00,0.000000,,2013-07-10 10:01:00,
2013-07-10 03:32:00,73.0,49.0,-100.00,NNW,333,0.0,0.0,42,0.00,,,0.00,0.000000,,2013-07-10 10:32:00,
2013-07-10 03:51:00,-999.0,-99.9,-100.00,NNW,333,0.0,0.0,-999,-99.99,,,-99.99,0.000000,,2013-07-10 10:51:00,
2013-07-10 04:00:00,-999.0,-99.9,-100.00,NNW,333,0.0,0.0,-999,-99.99,,,-99.99,0.000000,,2013-07-10 11:00:00,
2013-07-10 07:22:00,72.0,53.0,-100.00,NNW,340,0.0,0.0,51,-99.99,,,0.00,40.000000,,2013-07-10 14:22:00,
2013-07-10 07:33:00,72.0,53.0,-100.00,NNW,340,0.0,0.0,51,-99.99,,,0.00,40.000000,,2013-07-10 14:33:00,
2013-07-10 07:43:00,72.0,53.0,-100.00,NNW,340,0.0,0.0,51,-99.99,,,0.00,40.000000,,2013-07-10 14:43:00,
2013-07-10 07:53:00,72.0,53.0,-100.00,NNW,340,0.0,0.0,51,-99.99,,,0.00,40.000000,,2013-07-10 14:53:00,
2013-07-10 08:01:00,72.0,53.0,-100.00,NNW,340,0.0,0.0,51,-99.99,,,0.00,40.000000,,2013-07-10 15:01:00,
2013-07-10 08:34:00,79.0,56.0,-100.00,NNW,347,0.0,0.0,45,0.00,,,0.00,180.000000,,2013-07-10 15:34:00,
2013-07-10 08:42:00,79.0,56.0,-100.00,NNW,347,0.0,0.0,45,0.00,,,0.00,180.000000,,2013-07-10 15:42:00,
2013-07-10 08:52:00,79.0,56.0,-100.00,NNW,347,0.0,0.0,45,0.00,,,0.00,180.000000,,2013-07-10 15:52:00,
2013-07-10 09:01:00,79.0,56.0,-100.00,NNW,347,0.0,0.0,45,0.00,,,0.00,180.000000,,2013-07-10 16:01:00,
2013-07-10 09:33:00,84.0,58.0,-100.00,ENE,76,0.0,0.0,41,0.00,,,0.00,292.000000,,2013-07-10 16:33:00,
2013-07-10 09:44:00,84.0,58.0,-100.00,ENE,76,0.0,0.0,41,0.00,,,0.00,292.000000,,2013-07-10 16:44:00,
2013-07-10 09:53:00,84.0,58.0,-100.00,ENE,76,0.0,0.0,41,0.00,,,0.00,292.000000,,2013-07-10 16:53:00,
2013-07-10 10:01:00,84.0,58.0,-100.00,ENE,76,0.0,0.0,41,0.00,,,0.00,292.000000,,2013-07-10 17:01:00,
2013-07-10 10:23:00,83.0,58.0,-100.00,West,263,0.0,0.0,42,0.00,,,0.00,246.000000,,2013-07-10 17:23:00,
2013-07-10 10:32:00,83.0,58.0,-100.00,West,263,0.0,0.0,42,0.00,,,0.00,246.000000,,2013-07-10 17:32:00,
2013-07-10 10:43:00,83.0,58.0,-100.00,West,263,0.0,0.0,42,0.00,,,0.00,246.000000,,2013-07-10 17:43:00,
2013-07-10 10:53:00,83.0,58.0,-100.00,West,263,0.0,0.0,42,0.00,,,0.00,246.000000,,2013-07-10 17:53:00,
2013-07-10 11:01:00,83.0,58.0,-100.00,West,263,0.0,0.0,42,0.00,,,0.00,246.000000,,2013-07-10 18:01:00,
2013-07-10 11:22:00,88.0,57.0,-100.00,ESE,103,0.0,0.0,35,0.00,,,0.00,535.000000,,2013-07-10 18:22:00,
2013-07-10 11:32:00,88.0,57.0,-100.00,ESE,103,0.0,0.0,35,0.00,,,0.00,535.000000,,2013-07-10 18:32:00,
2013-07-10 11:44:00,88.0,57.0,-100.00,ESE,103,0.0,0.0,35,0.00,,,0.00,535.000000,,2013-07-10 18:44:00,
2013-07-10 11:53:00,88.0,57.0,-100.00,ESE,103,0.0,0.0,35,0.00,,,0.00,535.000000,,2013-07-10 18:53:00,
2013-07-10 12:01:00,88.0,57.0,-100.00,ESE,103,0.0,0.0,35,0.00,,,0.00,535.000000,,2013-07-10 19:01:00,
2013-07-10 12:22:00,92.0,58.0,-100.00,NNE,32,0.0,0.0,32,0.00,,,0.00,528.000000,,2013-07-10 19:22:00,
2013-07-10 12:32:00,92.0,58.0,-100.00,NNE,32,0.0,0.0,32,0.00,,,0.00,528.000000,,2013-07-10 19:32:00,
2013-07-10 12:42:00,92.0,58.0,-100.00,NNE,32,0.0,0.0,32,0.00,,,0.00,528.000000,,2013-07-10 19:42:00,
2013-07-10 12:53:00,92.0,58.0,-100.00,NNE,32,0.0,0.0,32,0.00,,,0.00,528.000000,,2013-07-10 19:53:00,
2013-07-10 13:01:00,92.0,58.0,-100.00,NNE,32,0.0,0.0,32,0.00,,,0.00,528.000000,,2013-07-10 20:01:00,
2013-07-10 13:32:00,96.0,59.0,-100.00,South,178,0.0,0.0,29,0.00,,,0.00,635.000000,,2013-07-10 20:32:00,
2013-07-10 13:43:00,96.0,59.0,-100.00,South,178,0.0,0.0,29,0.00,,,0.00,635.000000,,2013-07-10 20:43:00,
2013-07-10 13:52:00,96.0,59.0,-100.00,South,178,0.0,0.0,29,0.00,,,0.00,635.000000,,2013-07-10 20:52:00,
2013-07-10 14:01:00,96.0,59.0,-100.00,South,178,0.0,0.0,29,0.00,,,0.00,635.000000,,2013-07-10 21:01:00,
2013-07-10 14:22:00,94.0,56.0,-100.00,SSE,147,0.0,0.0,28,0.00,,,0.00,905.000000,,2013-07-10 21:22:00,
2013-07-10 14:32:00,94.0,56.0,-100.00,SSE,147,0.0,0.0,28,0.00,,,0.00,905.000000,,2013-07-10 21:32:00,
2013-07-10 14:42:00,94.0,56.0,-100.00,SSE,147,0.0,0.0,28,0.00,,,0.00,905.000000,,2013-07-10 21:42:00,
2013-07-10 14:52:00,94.0,56.0,-100.00,SSE,147,0.0,0.0,28,0.00,,,0.00,905.000000,,2013-07-10 21:52:00,
2013-07-10 15:01:00,94.0,56.0,-100.00,SSE,147,0.0,0.0,28,0.00,,,0.00,905.000000,,2013-07-10 22:01:00,
2013-07-10 16:32:00,77.0,57.0,-100.00,North,4,0.0,0.0,51,-99.99,,,0.00,199.000000,,2013-07-10 23:32:00,
2013-07-10 16:43:00,77.0,57.0,-100.00,North,4,0.0,0.0,51,-99.99,,,0.00,199.000000,,2013-07-10 23:43:00,
2013-07-10 16:52:00,77.0,57.0,-100.00,North,4,0.0,0.0,51,-99.99,,,0.00,199.000000,,2013-07-10 23:52:00,
2013-07-10 17:01:00,77.0,57.0,-100.00,North,4,0.0,0.0,51,-99.99,,,0.00,199.000000,,2013-07-11 00:01:00,
2013-07-10 17:32:00,73.0,58.0,-100.00,NE,52,0.0,0.0,60,0.00,,,0.00,11.000000,,2013-07-11 00:32:00,
2013-07-10 17:42:00,73.0,58.0,-100.00,NE,52,0.0,0.0,60,0.00,,,0.00,11.000000,,2013-07-11 00:42:00,
2013-07-10 17:52:00,73.0,58.0,-100.00,NE,52,0.0,0.0,60,0.00,,,0.00,11.000000,,2013-07-11 00:52:00,
2013-07-10 18:01:00,73.0,58.0,-100.00,NE,52,0.0,0.0,60,0.00,,,0.00,11.000000,,2013-07-11 01:01:00,
2013-07-10 18:32:00,73.0,55.0,-100.00,North,354,0.0,0.0,54,0.00,,,0.00,34.000000,,2013-07-11 01:32:00,
2013-07-10 18:43:00,73.0,55.0,-100.00,North,354,0.0,0.0,54,0.00,,,0.00,34.000000,,2013-07-11 01:43:00,
2013-07-10 18:52:00,73.0,55.0,-100.00,North,354,0.0,0.0,54,0.00,,,0.00,34.000000,,2013-07-11 01:52:00,
2013-07-10 19:01:00,73.0,55.0,-100.00,North,354,0.0,0.0,54,0.00,,,0.00,34.000000,,2013-07-11 02:01:00,
2013-07-10 19:32:00,73.0,53.0,-100.00,NNW,341,0.0,0.0,50,0.00,,,0.00,45.000000,,2013-07-11 02:32:00,
2013-07-10 19:43:00,73.0,53.0,-100.00,NNW,341,0.0,0.0,50,0.00,,,0.00,45.000000,,2013-07-11 02:43:00,
2013-07-10 19:53:00,73.0,53.0,-100.00,NNW,341,0.0,0.0,50,0.00,,,0.00,45.000000,,2013-07-11 02:53:00,
2013-07-10 20:01:00,73.0,53.0,-100.00,NNW,341,0.0,0.0,50,0.00,,,0.00,45.000000,,2013-07-11 03:01:00,
2013-07-10 20:33:00,73.0,56.0,-100.00,North,0,0.0,0.0,55,0.00,,,0.00,8.000000,,2013-07-11 03:33:00,
2013-07-10 20:42:00,73.0,56.0,-100.00,North,0,0.0,0.0,55,0.00,,,0.00,8.000000,,2013-07-11 03:42:00,
2013-07-10 20:52:00,73.0,56.0,-100.00,North,0,0.0,0.0,55,0.00,,,0.00,8.000000,,2013-07-11 03:52:00,
2013-07-10 21:01:00,73.0,56.0,-100.00,North,0,0.0,0.0,55,0.00,,,0.00,8.000000,,2013-07-11 04:01:00,
2013-07-10 21:32:00,72.0,54.0,-100.00,NNW,336,0.0,0.0,53,0.00,,,0.00,0.000000,,2013-07-11 04:32:00,
2013-07-10 21:42:00,72.0,54.0,-100.00,NNW,336,0.0,0.0,53,0.00,,,0.00,0.000000,,2013-07-11 04:42:00,
2013-07-10 21:53:00,72.0,54.0,-100.00,NNW,336,0.0,0.0,53,0.00,,,0.00,0.000000,,2013-07-11 04:53:00,
2013-07-10 22:01:00,72.0,54.0,-100.00,NNW,336,0.0,0.0,53,0.00,,,0.00,0.000000,,2013-07-11 05:01:00,
2013-07-10 22:32:00,71.0,54.0,-100.00,SSW,196,0.0,0.0,54,0.00,,,0.00,0.000000,,2013-07-11 05:32:00,
2013-07-10 22:43:00,71.0,54.0,-100.00,SSW,196,0.0,0.0,54,0.00,,,0.00,0.000000,,2013-07-11 05:43:00,
2013-07-10 22:52:00,71.0,54.0,-100.00,SSW,196,0.0,0.0,54,0.00,,,0.00,0.000000,,2013-07-11 05:52:00,
2013-07-10 23:01:00,71.0,54.0,-100.00,SSW,196,0.0,0.0,54,0.00,,,0.00,0.000000,,2013-07-11 06:01:00,
2013-07-10 23:32:00,72.0,55.0,-100.00,SW,230,0.0,0.0,56,0.00,,,0.00,0.000000,,2013-07-11 06:32:00,
2013-07-10 23:43:00,72.0,55.0,-100.00,SW,230,0.0,0.0,56,0.00,,,0.00,0.000000,,2013-07-11 06:43:00,
2013-07-10 23:52:00,72.0,55.0,-100.00,SW,230,0.0,0.0,56,0.00,,,0.00,0.000000,,2013-07-11 06:52:00,